Holdrege, NE

11:00 AM CDT on May 27, 2018 (GMT -0500)
Brewster

Weather History for KHDE - January, 2013

Change the Weather History Date:

Wednesday, January 23, 2013

  Actual Average Record
Temperature  
Mean Temperature 28 °F -  
Max Temperature 38 °F 38 °F 64 °F (1989)
Min Temperature 17 °F 15 °F -15 °F (1963)
Degree Days  
Heating Degree Days 38    
Moisture  
Dew Point 17 °F    
Average Humidity 69    
Maximum Humidity 83    
Minimum Humidity 51    
Precipitation  
Precipitation 0.00 in - - ()
Sea Level Pressure  
Sea Level Pressure 30.20 in    
Wind  
Wind Speed 9 mph (NNE)    
Max Wind Speed 18 mph    
Max Gust Speed 23 mph    
Visibility 10 miles    
Events      
Averages and records for this station are not official NWS values.
T = Trace of Precipitation, MM = Missing Value Source: NWS Daily Summary

Daily Weather History Graph

Daily Weather History Graph

Search for Another Location

Airport or City:

Astronomy

Jan. 23, 2013 Rise Set
Actual Time 7:53 AM CST 5:45 PM CST
Civil Twilight 7:24 AM CST 6:14 PM CST
Nautical Twilight 6:51 AM CST 6:47 PM CST
Astronomical Twilight 6:19 AM CST 7:19 PM CST
Moon 2:56 PM CST (1/23) 5:06 AM CST (1/23)
Length of Visible Light 10h 49m
Length of Day
9h 51m
Waxing Gibbous, 89% of the Moon is Illuminated
Jan 23
Waxing Gibbous
Jan 26
Full
Feb 3
Last Quarter
Feb 10
New
Feb 17
First Quarter

Hourly Weather History & Observations

Time (CST) Temp. Windchill Dew Point Humidity Pressure Visibility Wind Dir Wind Speed Gust Speed Precip Events Conditions
12:15 AM 23.0 °F 13.9 °F 15.6 °F 73% 30.15 in 10.0 mi SSW 8.1 mph - N/A   Clear
12:35 AM 23.0 °F 13.9 °F 15.8 °F 74% 30.14 in 10.0 mi SSW 8.1 mph - N/A   Clear
12:55 AM 23.0 °F 14.7 °F 15.8 °F 74% 30.13 in 10.0 mi SSW 6.9 mph - N/A   Clear
1:15 AM 23.5 °F 14.5 °F 16.3 °F 74% 30.12 in 10.0 mi SSW 8.1 mph - N/A   Clear
1:35 AM 24.4 °F 14.9 °F 16.5 °F 72% 30.11 in 10.0 mi SSW 9.2 mph - N/A   Clear
1:55 AM 24.3 °F 16.3 °F 16.7 °F 73% 30.11 in 10.0 mi SSW 6.9 mph - N/A   Clear
2:15 AM 24.3 °F 18.4 °F 16.7 °F 73% 30.11 in 10.0 mi SSW 4.6 mph - N/A   Clear
2:35 AM 23.5 °F 16.4 °F 16.7 °F 75% 30.11 in 10.0 mi SW 5.8 mph - N/A   Clear
2:55 AM 23.0 °F 17.0 °F 16.7 °F 77% 30.11 in 10.0 mi SW 4.6 mph - N/A   Clear
3:15 AM 22.3 °F 16.1 °F 16.5 °F 79% 30.10 in 10.0 mi SW 4.6 mph - N/A   Clear
3:35 AM 22.8 °F 15.5 °F 16.5 °F 77% 30.10 in 10.0 mi WSW 5.8 mph - N/A   Clear
3:55 AM 21.7 °F 17.0 °F 16.2 °F 79% 30.10 in 10.0 mi West 3.5 mph - N/A   Clear
4:15 AM 20.3 °F 13.8 °F 15.6 °F 82% 30.09 in 10.0 mi West 4.6 mph - N/A   Clear
4:35 AM 18.9 °F 10.8 °F 14.4 °F 83% 30.09 in 10.0 mi West 5.8 mph - N/A   Clear
4:55 AM 19.4 °F 11.5 °F 14.9 °F 83% 30.09 in 10.0 mi West 5.8 mph - N/A   Clear
5:15 AM 20.3 °F 12.5 °F 15.6 °F 82% 30.09 in 10.0 mi West 5.8 mph - N/A   Clear
5:35 AM 20.3 °F 13.8 °F 15.1 °F 80% 30.09 in 10.0 mi WNW 4.6 mph - N/A   Clear
5:55 AM 19.4 °F 12.8 °F 14.7 °F 82% 30.09 in 10.0 mi WNW 4.6 mph - N/A   Clear
6:15 AM 18.5 °F 11.7 °F 14.0 °F 83% 30.10 in 10.0 mi WNW 4.6 mph - N/A   Clear
6:35 AM 18.9 °F 10.8 °F 14.4 °F 83% 30.10 in 10.0 mi NW 5.8 mph - N/A   Clear
6:55 AM 17.4 °F 8.0 °F 13.1 °F 83% 30.11 in 10.0 mi West 6.9 mph - N/A   Clear
7:15 AM 21.4 °F 13.8 °F 16.0 °F 80% 30.11 in 10.0 mi WNW 5.8 mph - N/A   Clear
7:35 AM 21.0 °F 14.6 °F 15.1 °F 78% 30.12 in 10.0 mi NW 4.6 mph - N/A   Clear
7:55 AM 20.1 °F 12.3 °F 14.9 °F 80% 30.13 in 10.0 mi NNW 5.8 mph - N/A   Clear
8:15 AM 21.0 °F 11.4 °F 15.6 °F 80% 30.14 in 10.0 mi North 8.1 mph - N/A   Clear
8:35 AM 22.5 °F 16.3 °F 16.7 °F 79% 30.14 in 10.0 mi North 4.6 mph - N/A   Clear
8:55 AM 23.4 °F 17.4 °F 18.3 °F 81% 30.14 in 10.0 mi North 4.6 mph - N/A   Clear
9:15 AM 25.7 °F 19.0 °F 19.4 °F 77% 30.15 in 10.0 mi North 5.8 mph - N/A   Clear
9:35 AM 27.1 °F 19.7 °F 20.1 °F 75% 30.16 in 10.0 mi NNE 6.9 mph - N/A   Clear
9:55 AM 28.9 °F 19.2 °F 20.7 °F 71% 30.17 in 10.0 mi NE 11.5 mph - N/A   Clear
10:15 AM 30.2 °F 20.2 °F 21.0 °F 69% 30.17 in 10.0 mi NE 12.7 mph - N/A   Clear
10:35 AM 30.2 °F 19.8 °F 20.7 °F 68% 30.18 in 10.0 mi NE 13.8 mph - N/A   Clear
10:55 AM 30.7 °F 20.9 °F 21.0 °F 67% 30.20 in 10.0 mi NE 12.7 mph - N/A   Clear
11:15 AM 31.5 °F 22.3 °F 21.4 °F 66% 30.20 in 10.0 mi NE 11.5 mph - N/A   Clear
11:35 AM 33.1 °F 24.4 °F 22.3 °F 65% 30.20 in 10.0 mi NNE 11.5 mph - N/A   Clear
11:55 AM 33.8 °F 24.3 °F 22.3 °F 63% 30.20 in 10.0 mi NNE 13.8 mph - N/A   Clear
12:15 PM 35.2 °F 25.8 °F 22.6 °F 60% 30.19 in 10.0 mi NNE 15.0 mph - N/A   Clear
12:35 PM 36.1 °F 27.3 °F 22.3 °F 57% 30.19 in 10.0 mi NNE 13.8 mph - N/A   Clear
12:55 PM 36.7 °F 28.0 °F 22.5 °F 56% 30.19 in 10.0 mi NNE 13.8 mph - N/A   Clear
1:15 PM 37.9 °F 30.0 °F 22.6 °F 54% 30.18 in 10.0 mi NNE 12.7 mph - N/A   Clear
1:35 PM 37.4 °F 28.9 °F 22.3 °F 54% 30.18 in 10.0 mi NE 13.8 mph - N/A   Clear
1:55 PM 37.2 °F 28.7 °F 22.1 °F 54% 30.18 in 10.0 mi NNE 13.8 mph - N/A   Clear
2:15 PM 37.4 °F 28.2 °F 21.9 °F 54% 30.18 in 10.0 mi NE 16.1 mph - N/A   Clear
2:35 PM 37.0 °F 27.7 °F 21.7 °F 54% 30.19 in 10.0 mi NNE 16.1 mph - N/A   Clear
2:55 PM 38.1 °F 28.4 °F 21.4 °F 51% 30.20 in 10.0 mi NE 18.4 mph - N/A   Clear
3:15 PM 37.2 °F 27.6 °F 20.8 °F 52% 30.21 in 10.0 mi NE 17.3 mph 23.0 mph N/A   Clear
3:35 PM 37.6 °F 27.7 °F 21.2 °F 52% 30.23 in 10.0 mi NE 18.4 mph - N/A   Clear
3:55 PM 36.1 °F 27.3 °F 21.2 °F 55% 30.23 in 10.0 mi NE 13.8 mph 19.6 mph N/A   Clear
4:15 PM 34.9 °F 25.7 °F 20.8 °F 57% 30.23 in 10.0 mi NE 13.8 mph - N/A   Clear
4:35 PM 34.7 °F 25.9 °F 21.2 °F 58% 30.23 in 10.0 mi NE 12.7 mph - N/A   Clear
4:55 PM 33.8 °F 24.3 °F 20.5 °F 58% 30.24 in 10.0 mi NE 13.8 mph - N/A   Clear
5:15 PM 32.4 °F 22.5 °F 20.3 °F 61% 30.25 in 10.0 mi NE 13.8 mph - N/A   Clear
5:35 PM 32.0 °F 22.1 °F 19.4 °F 60% 30.26 in 10.0 mi NE 13.8 mph - N/A   Clear
5:55 PM 31.1 °F 20.9 °F 18.9 °F 61% 30.27 in 10.0 mi NE 13.8 mph - N/A   Clear
6:15 PM 29.8 °F 19.3 °F 18.7 °F 63% 30.28 in 10.0 mi NE 13.8 mph - N/A   Clear
6:35 PM 28.8 °F 18.4 °F 18.5 °F 66% 30.29 in 10.0 mi NE 12.7 mph - N/A   Clear
6:55 PM 28.0 °F 16.5 °F 16.5 °F 62% 30.30 in 10.0 mi NE 15.0 mph 19.6 mph N/A   Clear
7:15 PM 27.1 °F 15.9 °F 16.3 °F 64% 30.31 in 10.0 mi NE 13.8 mph - N/A   Clear
7:35 PM 26.1 °F 13.1 °F 14.9 °F 63% 30.32 in 10.0 mi NE 17.3 mph 21.9 mph N/A   Clear
7:55 PM 24.8 °F 13.4 °F 13.8 °F 63% 30.32 in 10.0 mi NE 12.7 mph 20.7 mph N/A   Clear
8:15 PM 24.3 °F 12.7 °F 13.6 °F 64% 30.34 in 10.0 mi NE 12.7 mph - N/A   Clear
8:35 PM 23.4 °F 10.6 °F 13.3 °F 65% 30.34 in 10.0 mi NE 15.0 mph - N/A   Clear
9:15 PM 22.5 °F 8.9 °F 13.5 °F 68% 30.35 in 10.0 mi NE 16.1 mph - N/A   Clear
9:35 PM 21.9 °F 9.8 °F 12.0 °F 66% 30.36 in 10.0 mi NE 12.7 mph - N/A   Clear
9:55 PM 21.2 °F 8.9 °F 12.0 °F 68% 30.36 in 10.0 mi NE 12.7 mph - N/A   Clear
10:15 PM 20.8 °F 7.9 °F 12.0 °F 69% 30.35 in 10.0 mi NE 13.8 mph - N/A   Clear
10:35 PM 20.1 °F 10.3 °F 12.6 °F 73% 30.36 in 10.0 mi ENE 8.1 mph - N/A   Clear
10:55 PM 19.4 °F 6.6 °F 11.8 °F 72% 30.37 in 10.0 mi ENE 12.7 mph - N/A   Clear
11:15 PM 18.9 °F 7.2 °F 11.1 °F 72% 30.37 in 10.0 mi NE 10.4 mph - N/A   Clear
11:35 PM 18.5 °F 6.8 °F 11.3 °F 73% 30.38 in 10.0 mi NE 10.4 mph - N/A   Clear
11:55 PM 17.8 °F 8.5 °F 10.9 °F 75% 30.39 in 10.0 mi ENE 6.9 mph - N/A   Clear